Tracking 23611 objects as of 18-Sep-2021
HD Live streaming from Space Station
objects crossing your sky now
Track INSPIRATION-4

EKRAN 18

Track EKRAN 18 now!
EKRAN 18 is classified as:


NORAD ID: 19090
Int'l Code: 1988-036A
Perigee: 37,228.0 km
Apogee: 37,341.2 km
Inclination: 15.5 °
Period: 1,512.9 minutes
Semi major axis: 43655 km
RCS: 6.0212 m2 (large)
Launch date: May 6, 1988
Source: Commonwealth of Independent States (former USSR) (CIS)
Launch site: TYURATAM MISSILE AND SPACE COMPLEX (TTMTR)
aabbcc
Your satellite tracking list
Your tracking list is empty




NASA's NSSDC Master Catalog

Two Line Element Set (TLE):
1 19090U 88036A   21259.09269833 -.00000159  00000-0  00000-0 0  9999
2 19090  15.4652 344.6566 0012971  61.0239 323.4141  0.95179427100507
Source of the keplerian elements: AFSPC